{"data":{"norad_id":68847,"epoch":"2026-09-20T00:39:02.068128Z","epoch_age_seconds":56300,"freshness":"FRESH","line1":"1 68847U 26094J   26263.02710727  .00025958  00000+0  80350-3 0  9996","line2":"2 68847  97.2858 276.1319 0002236  88.3112 271.8386 15.33448212 22584","mean_motion":15.33448212,"eccentricity":0.0002236,"inclination_deg":97.2858,"raan_deg":276.1319,"arg_perigee_deg":88.3112,"mean_anomaly_deg":271.8386,"bstar":0.0008035,"rev_number":2258,"period_min":93.906007958487,"perigee_km":464.0033730925,"apogee_km":467.0638625928,"semimajor_km":6843.6706178426,"source":"CELESTRAK","updated_at":"2026-09-20T09:00:44.015902Z"}}